Time,TemperatureF,DewpointF,PressureIn,WindDirection,WindDirectionDegrees,WindSpeedMPH,WindSpeedGustMPH,Humidity,HourlyPrecipIn,Conditions,Clouds,dailyrainin,SolarRadiationWatts/m^2,SoftwareType,DateUTC
2013-10-02 01:13:00,66.0,65.0,-100.00,SSW,194,1.0,2.0,97,-99.99,,,0.00,0.000000,,2013-10-02 05:13:00,
2013-10-02 01:23:00,66.0,65.0,-100.00,SSW,194,1.0,2.0,97,-99.99,,,0.00,0.000000,,2013-10-02 05:23:00,
2013-10-02 01:33:00,66.0,65.0,-100.00,SSW,194,1.0,2.0,97,-99.99,,,0.00,0.000000,,2013-10-02 05:33:00,
2013-10-02 01:43:00,66.0,65.0,-100.00,SSW,194,1.0,2.0,97,-99.99,,,0.00,0.000000,,2013-10-02 05:43:00,
2013-10-02 02:12:00,66.0,65.0,-100.00,ESE,113,0.0,2.0,98,0.00,,,0.00,0.000000,,2013-10-02 06:12:00,
2013-10-02 02:22:00,66.0,65.0,-100.00,ESE,113,0.0,2.0,98,0.00,,,0.00,0.000000,,2013-10-02 06:22:00,
2013-10-02 02:32:00,66.0,65.0,-100.00,ESE,113,0.0,2.0,98,0.00,,,0.00,0.000000,,2013-10-02 06:32:00,
2013-10-02 02:42:00,66.0,65.0,-100.00,ESE,113,0.0,2.0,98,0.00,,,0.00,0.000000,,2013-10-02 06:42:00,
2013-10-02 03:12:00,66.0,65.0,-100.00,SSW,194,1.0,2.0,98,0.00,,,0.00,0.000000,,2013-10-02 07:12:00,
2013-10-02 03:22:00,66.0,65.0,-100.00,SSW,194,1.0,2.0,98,0.00,,,0.00,0.000000,,2013-10-02 07:22:00,
2013-10-02 03:32:00,66.0,65.0,-100.00,SSW,194,1.0,2.0,98,0.00,,,0.00,0.000000,,2013-10-02 07:32:00,
2013-10-02 03:42:00,66.0,65.0,-100.00,SSW,194,1.0,2.0,98,0.00,,,0.00,0.000000,,2013-10-02 07:42:00,
2013-10-02 04:11:00,66.0,65.0,-100.00,South,176,1.0,2.0,98,0.00,,,0.00,0.000000,,2013-10-02 08:11:00,
2013-10-02 04:22:00,66.0,65.0,-100.00,South,176,1.0,2.0,98,0.00,,,0.00,0.000000,,2013-10-02 08:22:00,
2013-10-02 04:32:00,66.0,65.0,-100.00,South,176,1.0,2.0,98,0.00,,,0.00,0.000000,,2013-10-02 08:32:00,
2013-10-02 04:42:00,66.0,65.0,-100.00,South,176,1.0,2.0,98,0.00,,,0.00,0.000000,,2013-10-02 08:42:00,
2013-10-02 05:11:00,67.0,67.0,-100.00,WSW,255,2.0,3.0,99,0.00,,,0.00,0.000000,,2013-10-02 09:11:00,
2013-10-02 05:21:00,67.0,67.0,-100.00,WSW,255,2.0,3.0,99,0.00,,,0.00,0.000000,,2013-10-02 09:21:00,
2013-10-02 05:33:00,67.0,67.0,-100.00,WSW,255,2.0,3.0,99,0.00,,,0.00,0.000000,,2013-10-02 09:33:00,
2013-10-02 05:43:00,67.0,67.0,-100.00,WSW,255,2.0,3.0,99,0.00,,,0.00,0.000000,,2013-10-02 09:43:00,
2013-10-02 06:12:00,67.0,67.0,-100.00,WSW,255,1.0,5.0,99,0.00,,,0.00,0.000000,,2013-10-02 10:12:00,
2013-10-02 06:23:00,67.0,67.0,-100.00,WSW,255,1.0,5.0,99,0.00,,,0.00,0.000000,,2013-10-02 10:23:00,
2013-10-02 06:33:00,67.0,67.0,-100.00,WSW,255,1.0,5.0,99,0.00,,,0.00,0.000000,,2013-10-02 10:33:00,
2013-10-02 06:42:00,67.0,67.0,-100.00,WSW,255,1.0,5.0,99,0.00,,,0.00,0.000000,,2013-10-02 10:42:00,
2013-10-02 07:12:00,67.0,67.0,-100.00,WSW,246,1.0,2.0,99,0.00,,,0.00,0.000000,,2013-10-02 11:12:00,
2013-10-02 07:22:00,67.0,67.0,-100.00,WSW,246,1.0,2.0,99,0.00,,,0.00,0.000000,,2013-10-02 11:22:00,
2013-10-02 07:33:00,67.0,67.0,-100.00,WSW,246,1.0,2.0,99,0.00,,,0.00,0.000000,,2013-10-02 11:33:00,
2013-10-02 07:43:00,67.0,67.0,-100.00,WSW,246,1.0,2.0,99,0.00,,,0.00,0.000000,,2013-10-02 11:43:00,
2013-10-02 08:12:00,67.0,-99.9,-100.00,South,189,1.0,-999.0,-999,0.00,,,0.00,,,2013-10-02 12:12:00,
2013-10-02 08:22:00,67.0,-99.9,-100.00,South,189,1.0,-999.0,-999,0.00,,,0.00,,,2013-10-02 12:22:00,
2013-10-02 08:32:00,67.0,-99.9,-100.00,South,189,1.0,-999.0,-999,0.00,,,0.00,,,2013-10-02 12:32:00,
2013-10-02 08:42:00,67.0,-99.9,-100.00,South,189,1.0,-999.0,-999,0.00,,,0.00,,,2013-10-02 12:42:00,
2013-10-02 09:11:00,67.0,67.0,-100.00,SW,217,2.0,2.0,99,0.00,,,0.00,14.000000,,2013-10-02 13:11:00,
2013-10-02 09:22:00,67.0,67.0,-100.00,SW,217,2.0,2.0,99,0.00,,,0.00,14.000000,,2013-10-02 13:22:00,
2013-10-02 09:32:00,67.0,67.0,-100.00,SW,217,2.0,2.0,99,0.00,,,0.00,14.000000,,2013-10-02 13:32:00,
2013-10-02 09:42:00,67.0,67.0,-100.00,SW,217,2.0,2.0,99,0.00,,,0.00,14.000000,,2013-10-02 13:42:00,
2013-10-02 10:11:00,68.0,68.0,-100.00,SE,127,1.0,2.0,99,0.00,,,-99.99,20.000000,,2013-10-02 14:11:00,
2013-10-02 10:21:00,68.0,68.0,-100.00,SE,127,1.0,2.0,99,0.00,,,-99.99,20.000000,,2013-10-02 14:21:00,
2013-10-02 10:32:00,68.0,68.0,-100.00,SE,127,1.0,2.0,99,0.00,,,-99.99,20.000000,,2013-10-02 14:32:00,
2013-10-02 10:42:00,68.0,68.0,-100.00,SE,127,1.0,2.0,99,0.00,,,-99.99,20.000000,,2013-10-02 14:42:00,
2013-10-02 11:11:00,69.0,69.0,-100.00,South,186,2.0,2.0,99,0.00,,,0.00,58.000000,,2013-10-02 15:11:00,
2013-10-02 11:22:00,69.0,69.0,-100.00,South,186,2.0,2.0,99,0.00,,,0.00,58.000000,,2013-10-02 15:22:00,
2013-10-02 11:33:00,69.0,69.0,-100.00,South,186,2.0,2.0,99,0.00,,,0.00,58.000000,,2013-10-02 15:33:00,
2013-10-02 11:43:00,69.0,69.0,-100.00,South,186,2.0,2.0,99,0.00,,,0.00,58.000000,,2013-10-02 15:43:00,
2013-10-02 12:12:00,71.0,69.0,-100.00,WSW,256,1.0,4.0,94,0.00,,,0.00,100.000000,,2013-10-02 16:12:00,
2013-10-02 12:23:00,71.0,69.0,-100.00,WSW,256,1.0,4.0,94,0.00,,,0.00,100.000000,,2013-10-02 16:23:00,
2013-10-02 12:32:00,71.0,69.0,-100.00,WSW,256,1.0,4.0,94,0.00,,,0.00,100.000000,,2013-10-02 16:32:00,
2013-10-02 12:43:00,71.0,69.0,-100.00,WSW,256,1.0,4.0,94,0.00,,,0.00,100.000000,,2013-10-02 16:43:00,
2013-10-02 13:12:00,73.0,70.0,-100.00,SW,235,2.0,3.0,89,0.00,,,0.00,151.000000,,2013-10-02 17:12:00,
2013-10-02 13:23:00,73.0,70.0,-100.00,SW,235,2.0,3.0,89,0.00,,,0.00,151.000000,,2013-10-02 17:23:00,
2013-10-02 13:33:00,73.0,70.0,-100.00,SW,235,2.0,3.0,89,0.00,,,0.00,151.000000,,2013-10-02 17:33:00,
2013-10-02 13:42:00,73.0,70.0,-100.00,SW,235,2.0,3.0,89,0.00,,,0.00,151.000000,,2013-10-02 17:42:00,
2013-10-02 14:12:00,74.0,70.0,-100.00,SE,130,2.0,4.0,86,0.00,,,0.00,136.000000,,2013-10-02 18:12:00,
2013-10-02 14:21:00,74.0,70.0,-100.00,SE,130,2.0,4.0,86,0.00,,,0.00,136.000000,,2013-10-02 18:21:00,
2013-10-02 14:32:00,74.0,70.0,-100.00,SE,130,2.0,4.0,86,0.00,,,0.00,136.000000,,2013-10-02 18:32:00,
2013-10-02 14:42:00,74.0,70.0,-100.00,SE,130,2.0,4.0,86,0.00,,,0.00,136.000000,,2013-10-02 18:42:00,
2013-10-02 15:11:00,74.0,69.0,-100.00,SSW,196,2.0,4.0,85,0.00,,,0.00,106.000000,,2013-10-02 19:11:00,
2013-10-02 15:22:00,74.0,69.0,-100.00,SSW,196,2.0,4.0,85,0.00,,,0.00,106.000000,,2013-10-02 19:22:00,
2013-10-02 15:32:00,74.0,69.0,-100.00,SSW,196,2.0,4.0,85,0.00,,,0.00,106.000000,,2013-10-02 19:32:00,
2013-10-02 15:42:00,74.0,69.0,-100.00,SSW,196,2.0,4.0,85,0.00,,,0.00,106.000000,,2013-10-02 19:42:00,
2013-10-02 16:11:00,78.0,71.0,-100.00,ESE,122,1.0,5.0,79,0.00,,,0.00,247.000000,,2013-10-02 20:11:00,
2013-10-02 16:22:00,78.0,71.0,-100.00,ESE,122,1.0,5.0,79,0.00,,,0.00,247.000000,,2013-10-02 20:22:00,
2013-10-02 16:32:00,78.0,71.0,-100.00,ESE,122,1.0,5.0,79,0.00,,,0.00,247.000000,,2013-10-02 20:32:00,
2013-10-02 16:42:00,78.0,71.0,-100.00,ESE,122,1.0,5.0,79,0.00,,,0.00,247.000000,,2013-10-02 20:42:00,
2013-10-02 17:22:00,77.0,71.0,-100.00,SSW,202,2.0,4.0,81,0.00,,,0.00,146.000000,,2013-10-02 21:22:00,
2013-10-02 17:34:00,77.0,71.0,-100.00,SSW,202,2.0,4.0,81,0.00,,,0.00,146.000000,,2013-10-02 21:34:00,
2013-10-02 17:44:00,77.0,71.0,-100.00,SSW,202,2.0,4.0,81,0.00,,,0.00,146.000000,,2013-10-02 21:44:00,
2013-10-02 18:13:00,76.0,69.0,-100.00,SW,221,1.0,3.0,80,0.00,,,0.00,115.000000,,2013-10-02 22:13:00,
2013-10-02 18:24:00,76.0,69.0,-100.00,SW,221,1.0,3.0,80,0.00,,,0.00,115.000000,,2013-10-02 22:24:00,
2013-10-02 18:33:00,76.0,69.0,-100.00,SW,221,1.0,3.0,80,0.00,,,0.00,115.000000,,2013-10-02 22:33:00,
2013-10-02 18:44:00,76.0,69.0,-100.00,SW,221,1.0,3.0,80,0.00,,,0.00,115.000000,,2013-10-02 22:44:00,
2013-10-02 19:12:00,74.0,70.0,-100.00,NE,45,0.0,2.0,88,0.00,,,0.00,44.000000,,2013-10-02 23:12:00,
2013-10-02 19:22:00,74.0,70.0,-100.00,NE,45,0.0,2.0,88,0.00,,,0.00,44.000000,,2013-10-02 23:22:00,
2013-10-02 19:33:00,74.0,70.0,-100.00,NE,45,0.0,2.0,88,0.00,,,0.00,44.000000,,2013-10-02 23:33:00,
2013-10-02 19:42:00,74.0,70.0,-100.00,NE,45,0.0,2.0,88,0.00,,,0.00,44.000000,,2013-10-02 23:42:00,
2013-10-02 20:12:00,71.0,69.0,-100.00,SE,132,0.0,2.0,95,0.00,,,0.00,4.000000,,2013-10-03 00:12:00,
2013-10-02 20:22:00,71.0,69.0,-100.00,SE,132,0.0,2.0,95,0.00,,,0.00,4.000000,,2013-10-03 00:22:00,
2013-10-02 20:32:00,71.0,69.0,-100.00,SE,132,0.0,2.0,95,0.00,,,0.00,4.000000,,2013-10-03 00:32:00,
2013-10-02 20:42:00,71.0,69.0,-100.00,SE,132,0.0,2.0,95,0.00,,,0.00,4.000000,,2013-10-03 00:42:00,
2013-10-02 21:11:00,71.0,70.0,-100.00,SE,128,2.0,2.0,98,0.00,,,0.00,0.000000,,2013-10-03 01:11:00,
2013-10-02 21:23:00,71.0,70.0,-100.00,SE,128,2.0,2.0,98,0.00,,,0.00,0.000000,,2013-10-03 01:23:00,
2013-10-02 21:32:00,71.0,70.0,-100.00,SE,128,2.0,2.0,98,0.00,,,0.00,0.000000,,2013-10-03 01:32:00,
2013-10-02 21:42:00,71.0,70.0,-100.00,SE,128,2.0,2.0,98,0.00,,,0.00,0.000000,,2013-10-03 01:42:00,
2013-10-02 22:11:00,71.0,70.0,-100.00,WSW,250,4.0,9.0,98,0.00,,,0.00,0.000000,,2013-10-03 02:11:00,
2013-10-02 22:22:00,71.0,70.0,-100.00,WSW,250,4.0,9.0,98,0.00,,,0.00,0.000000,,2013-10-03 02:22:00,
2013-10-02 22:32:00,71.0,70.0,-100.00,WSW,250,4.0,9.0,98,0.00,,,0.00,0.000000,,2013-10-03 02:32:00,
2013-10-02 22:42:00,71.0,70.0,-100.00,WSW,250,4.0,9.0,98,0.00,,,0.00,0.000000,,2013-10-03 02:42:00,